Regional Weather Roundup
Issued by NWS

Home | Current Version | Previous Version | Graphics & Text | Print | Product List | Glossary On
Versions: 1 2 3 4 5 6 7 8 9 10 11 12 13 14 15 16 17 18 19 20 21 22 23 24 25 26 27 28 29 30 31 32 33 34 35 36 37 38 39 40 41 42 43 44 45 46 47 48 49 50
000
ASUS43 KIND 251659
RWRIN

WEATHER ROUNDUP FOR INDIANA
NATIONAL WEATHER SERVICE INDIANAPOLIS IN
100 PM EDT WED APR 25 2018

NOTE: "FAIR" INDICATES FEW OR NO CLOUDS BELOW 12,000 FEET WITH NO
SIGNIFICANT WEATHER AND/OR OBSTRUCTIONS TO VISIBILITY.

* - STATION DOES NOT REPORT WEATHER SUCH AS PRECIPITATION OR FOG.

+ - STATION NOT QUALITY CONTROLLED BY THE NATIONAL WEATHER SERVICE.
    USE DATA WITH CAUTION...ESPECIALLY DEWPOINT AND RELATIVE
    HUMIDITY OBSERVATIONS.

INZ001>003-010>013-019-020-251800-
NORTHWEST INDIANA

CITY           SKY/WX    TMP DP  RH WIND       PRES   REMARKS
GARY /AIRPORT/ MOSUNNY   45  34  65 N18       30.12F
KNOX *+        FAIR      54  36  50 N17G25    30.05S
LA PORTE +     FAIR      49  37  63 N13G20    30.08R
MICHIGAN CITY+ FAIR      45  34  65 N16G22    30.10S
MONTICELLO +   FAIR      61  36  38 N14       30.02F
RENSSELAER +   FAIR      55  28  35 N13G18    30.06S

$$

LMZ046-743>745-251800-
SOUTHERN LAKE MICHIGAN

STATION/POSITION TIME  TEMP    WIND        PRES    WAVE
                       AIR SEA DIR/SP/G            HT
                 (UTC) (F)     (DEG/KT/KT) (MB)    (FT)
BURNS HARBOR     1640   39     350/ 13/ 17 1020.0F
MICHIGAN CITY    1630   40     330/ 18/ 20   N/A

$$

INZ004-005-014>016-021>024-251800-
NORTH CENTRAL INDIANA

CITY           SKY/WX    TMP DP  RH WIND       PRES   REMARKS
ELKHART        FAIR      59  36  41 NW10G21   30.00F
GOSHEN         FAIR      59  39  47 N16G25    29.99F
ROCHESTER +    FAIR      61  37  41 N14       30.01F
SOUTH BEND     FAIR      54  34  46 NW16G24   30.04S
WARSAW +       FAIR      59  36  41 N12G24    30.00F

$$

INZ006>009-017-018-025>027-251800-
NORTHEAST INDIANA

CITY           SKY/WX    TMP DP  RH WIND       PRES   REMARKS
ANGOLA *+      FAIR      57  37  47 N12G17    29.96F
AUBURN +       FAIR      59  41  51 N13G20    29.98F
FORT WAYNE     FAIR      60  47  61 NW14      29.97F
HUNTINGTON +   FAIR      59  44  58 N9        29.98F
KENDALLVILLE + FAIR      58  34  41 N14G20    29.98F

$$

INZ028-029-035-036-043>045-051>053-251800-
WEST CENTRAL INDIANA

CITY           SKY/WX    TMP DP  RH WIND       PRES   REMARKS
CRAWFORDSVL +  PTSUNNY   56  49  79 N8        30.03F
GREENCASTLE +  CLOUDY    50  46  87 NW7       30.04F FOG
LAFAYETTE      FAIR      60  41  49 N10G20    30.03S
TERRE HAUTE    PTSUNNY   57  51  80 N8        30.04F

$$

INZ030>032-037>040-046>048-054>057-064-065-251800-
CENTRAL INDIANA

CITY           SKY/WX    TMP DP  RH WIND       PRES   REMARKS
ANDERSON         N/A     57  50  77 NW12G17   30.00S
COLUMBUS       PTSUNNY   59  46  63 N14       30.00S
FRANKFORT +    FAIR      61  49  65 N12       30.03F
GREENWOOD *+   PTSUNNY   59  51  73 N12       30.00S
INDIANAPOLIS   PTSUNNY   56  49  77 NW13      30.02R
-EAGLE CREEK   CLOUDY    53  47  79 NW9       30.02R
KOKOMO +       FAIR      59  47  64 N12       30.01F
MT COMFORT *+  PTSUNNY   57  54  88 N9G21     30.00S
SHELBYVILLE    PTSUNNY   62  49  62 N10       29.98S
ZIONSVILLE +   CLOUDY    52  49  90 NW7       30.03S

$$

INZ033-034-041-042-049-050-058-059-251800-
EAST CENTRAL INDIANA

CITY           SKY/WX    TMP DP  RH WIND       PRES   REMARKS
MUNCIE         PTSUNNY   62  51  67 N12       29.97F
RICHMOND +     CLOUDY    55  50  82 N13G20    29.96F

$$

INZ060-061-067>069-081>083-085>088-251800-
SOUTHWEST INDIANA

CITY           SKY/WX    TMP DP  RH WIND       PRES   REMARKS
EVANSVILLE     PTSUNNY   66  55  67 N8        30.01F
HUNTINGBURG +  PTSUNNY   64  53  67 NW9       30.00F

$$

INZ062-063-066-070>080-084-089>092-251800-
SOUTH CENTRAL AND SOUTHEAST INDIANA

CITY           SKY/WX    TMP DP  RH WIND       PRES   REMARKS
BLOOMINGTON    FAIR      62  52  69 N9        30.00F
FRENCH LICK *+ CLOUDY    61  45  55 NW6       30.00F
SEYMOUR +      PTSUNNY   63  50  63 N10       30.00S

$$




USA.gov is the U.S. government's official web portal to all federal, state and local government web resources and services.